Time,TemperatureF,DewpointF,PressureIn,WindDirection,WindDirectionDegrees,WindSpeedMPH,WindSpeedGustMPH,Humidity,HourlyPrecipIn,Conditions,Clouds,dailyrainin,SoftwareType,DateUTC
2013-10-27 00:13:00,56.0,54.0,30.07,West,261,0.0,-999.0,92,-99.99,,,-99.99,,2013-10-27 05:13:00,
2013-10-27 00:23:00,56.0,54.0,30.07,West,261,0.0,-999.0,93,-99.99,,,-99.99,,2013-10-27 05:23:00,
2013-10-27 00:43:00,56.0,54.0,30.06,West,261,0.0,-999.0,92,-99.99,,,-99.99,,2013-10-27 05:43:00,
2013-10-27 00:52:00,56.0,54.0,30.06,West,261,0.0,-999.0,92,-99.99,,,-99.99,,2013-10-27 05:52:00,
2013-10-27 01:13:00,56.0,54.0,30.06,West,261,0.0,-999.0,92,-99.99,,,-99.99,,2013-10-27 06:13:00,
2013-10-27 01:22:00,56.0,54.0,30.06,West,261,0.0,-999.0,92,-99.99,,,-99.99,,2013-10-27 06:22:00,
2013-10-27 01:42:00,55.0,53.0,30.06,West,261,0.0,-999.0,92,-99.99,,,-99.99,,2013-10-27 06:42:00,
2013-10-27 01:53:00,55.0,53.0,30.06,West,261,0.0,-999.0,92,-99.99,,,-99.99,,2013-10-27 06:53:00,
2013-10-27 02:12:00,54.0,52.0,30.06,West,261,0.0,-999.0,92,-99.99,,,-99.99,,2013-10-27 07:12:00,
2013-10-27 02:22:00,54.0,51.0,30.06,West,261,0.0,-999.0,90,-99.99,,,-99.99,,2013-10-27 07:22:00,
2013-10-27 02:42:00,54.0,51.0,30.07,West,261,0.0,-999.0,88,-99.99,,,-99.99,,2013-10-27 07:42:00,
2013-10-27 02:52:00,54.0,49.0,30.06,West,261,0.0,-999.0,84,-99.99,,,-99.99,,2013-10-27 07:52:00,
2013-10-27 03:11:00,54.0,47.0,30.06,West,261,0.0,-999.0,78,-99.99,,,-99.99,,2013-10-27 08:11:00,
2013-10-27 03:22:00,54.0,48.0,30.07,West,261,0.0,-999.0,79,-99.99,,,-99.99,,2013-10-27 08:22:00,
2013-10-27 03:42:00,53.0,48.0,30.07,West,261,0.0,-999.0,83,-99.99,,,-99.99,,2013-10-27 08:42:00,
2013-10-27 03:52:00,53.0,46.0,30.07,West,261,0.0,-999.0,76,-99.99,,,-99.99,,2013-10-27 08:52:00,
2013-10-27 04:12:00,53.0,44.0,30.07,West,261,0.0,-999.0,72,-99.99,,,-99.99,,2013-10-27 09:12:00,
2013-10-27 04:21:00,53.0,43.0,30.06,West,261,1.0,-999.0,69,-99.99,,,-99.99,,2013-10-27 09:21:00,
2013-10-27 04:43:00,53.0,44.0,30.06,West,261,0.0,-999.0,71,-99.99,,,-99.99,,2013-10-27 09:43:00,
2013-10-27 04:53:00,52.0,43.0,30.07,West,261,0.0,-999.0,71,-99.99,,,-99.99,,2013-10-27 09:53:00,
2013-10-27 05:12:00,52.0,44.0,30.06,West,261,0.0,-999.0,73,-99.99,,,-99.99,,2013-10-27 10:12:00,
2013-10-27 05:23:00,52.0,44.0,30.06,West,261,0.0,-999.0,73,-99.99,,,-99.99,,2013-10-27 10:23:00,
2013-10-27 05:42:00,52.0,45.0,30.06,West,261,0.0,-999.0,77,-99.99,,,-99.99,,2013-10-27 10:42:00,
2013-10-27 05:53:00,51.0,43.0,30.06,West,261,0.0,-999.0,74,-99.99,,,-99.99,,2013-10-27 10:53:00,
2013-10-27 06:12:00,51.0,43.0,30.06,West,261,0.0,-999.0,73,-99.99,,,-99.99,,2013-10-27 11:12:00,
2013-10-27 06:22:00,51.0,43.0,30.06,West,261,0.0,-999.0,75,-99.99,,,-99.99,,2013-10-27 11:22:00,
2013-10-27 06:42:00,51.0,42.0,30.06,West,261,0.0,-999.0,72,-99.99,,,-99.99,,2013-10-27 11:42:00,
2013-10-27 06:52:00,51.0,42.0,30.06,West,261,0.0,-999.0,72,-99.99,,,-99.99,,2013-10-27 11:52:00,
2013-10-27 07:12:00,51.0,42.0,30.06,West,261,0.0,-999.0,71,-99.99,,,-99.99,,2013-10-27 12:12:00,
2013-10-27 07:22:00,51.0,43.0,30.06,West,261,0.0,-999.0,75,-99.99,,,-99.99,,2013-10-27 12:22:00,
2013-10-27 07:42:00,51.0,43.0,30.05,West,261,0.0,-999.0,75,-99.99,,,-99.99,,2013-10-27 12:42:00,
2013-10-27 07:52:00,51.0,44.0,30.05,West,261,0.0,-999.0,77,-99.99,,,-99.99,,2013-10-27 12:52:00,
2013-10-27 08:12:00,50.0,42.0,30.05,West,261,0.0,-999.0,73,-99.99,,,-99.99,,2013-10-27 13:12:00,
2013-10-27 08:21:00,50.0,42.0,30.06,West,261,0.0,-999.0,74,-99.99,,,-99.99,,2013-10-27 13:21:00,
2013-10-27 08:42:00,50.0,42.0,30.06,West,261,0.0,-999.0,74,-99.99,,,-99.99,,2013-10-27 13:42:00,
2013-10-27 08:52:00,50.0,42.0,30.07,West,261,0.0,-999.0,75,-99.99,,,-99.99,,2013-10-27 13:52:00,
2013-10-27 09:11:00,50.0,41.0,30.07,West,261,0.0,-999.0,72,-99.99,,,-99.99,,2013-10-27 14:11:00,
2013-10-27 09:22:00,51.0,43.0,30.08,West,261,0.0,-999.0,73,-99.99,,,-99.99,,2013-10-27 14:22:00,
2013-10-27 09:42:00,51.0,42.0,30.09,West,261,0.0,-999.0,72,-99.99,,,-99.99,,2013-10-27 14:42:00,
2013-10-27 09:52:00,51.0,42.0,30.09,West,261,0.0,-999.0,71,-99.99,,,-99.99,,2013-10-27 14:52:00,
2013-10-27 10:11:00,51.0,42.0,30.09,West,261,0.0,-999.0,72,-99.99,,,-99.99,,2013-10-27 15:11:00,
2013-10-27 10:22:00,51.0,43.0,30.09,West,261,0.0,-999.0,73,-99.99,,,-99.99,,2013-10-27 15:22:00,
2013-10-27 10:44:00,51.0,42.0,30.09,West,261,0.0,-999.0,72,-99.99,,,-99.99,,2013-10-27 15:44:00,
2013-10-27 10:54:00,52.0,43.0,30.09,West,261,0.0,-999.0,71,-99.99,,,-99.99,,2013-10-27 15:54:00,
2013-10-27 11:13:00,52.0,42.0,30.08,West,261,0.0,-999.0,68,-99.99,,,-99.99,,2013-10-27 16:13:00,
2013-10-27 11:24:00,52.0,43.0,30.08,West,261,0.0,-999.0,71,-99.99,,,-99.99,,2013-10-27 16:24:00,
2013-10-27 11:43:00,52.0,42.0,30.08,West,261,0.0,-999.0,69,-99.99,,,-99.99,,2013-10-27 16:43:00,
2013-10-27 11:53:00,53.0,42.0,30.08,West,261,0.0,-999.0,66,-99.99,,,-99.99,,2013-10-27 16:53:00,
2013-10-27 12:13:00,53.0,41.0,30.09,West,261,0.0,-999.0,64,-99.99,,,-99.99,,2013-10-27 17:13:00,
2013-10-27 12:22:00,53.0,42.0,30.08,West,261,1.0,-999.0,65,-99.99,,,-99.99,,2013-10-27 17:22:00,
2013-10-27 12:43:00,54.0,41.0,30.07,West,261,1.0,-999.0,61,-99.99,,,-99.99,,2013-10-27 17:43:00,
2013-10-27 12:53:00,54.0,40.0,30.06,West,261,0.0,-999.0,60,-99.99,,,-99.99,,2013-10-27 17:53:00,
2013-10-27 13:12:00,55.0,41.0,30.06,West,261,0.0,-999.0,60,-99.99,,,-99.99,,2013-10-27 18:12:00,
2013-10-27 13:22:00,56.0,43.0,30.05,ESE,118,0.0,-999.0,61,-99.99,,,-99.99,,2013-10-27 18:22:00,
2013-10-27 13:43:00,57.0,42.0,30.04,ESE,117,0.0,-999.0,58,-99.99,,,-99.99,,2013-10-27 18:43:00,
2013-10-27 13:52:00,57.0,43.0,30.03,NE,55,0.0,-999.0,60,-99.99,,,-99.99,,2013-10-27 18:52:00,
2013-10-27 14:11:00,58.0,44.0,30.03,ENE,59,0.0,-999.0,60,-99.99,,,-99.99,,2013-10-27 19:11:00,
2013-10-27 14:22:00,58.0,45.0,30.02,ENE,76,0.0,-999.0,63,-99.99,,,-99.99,,2013-10-27 19:22:00,
2013-10-27 14:42:00,59.0,46.0,30.01,ENE,76,0.0,-999.0,61,-99.99,,,-99.99,,2013-10-27 19:42:00,
2013-10-27 14:52:00,59.0,46.0,30.01,East,81,2.0,-999.0,62,-99.99,,,-99.99,,2013-10-27 19:52:00,
2013-10-27 15:12:00,58.0,45.0,30.00,ESE,107,1.0,-999.0,63,-99.99,,,-99.99,,2013-10-27 20:12:00,
2013-10-27 15:22:00,59.0,46.0,29.99,East,84,1.0,-999.0,62,-99.99,,,-99.99,,2013-10-27 20:22:00,
2013-10-27 15:43:00,60.0,48.0,29.99,East,86,0.0,-999.0,64,-99.99,,,-99.99,,2013-10-27 20:43:00,
2013-10-27 15:52:00,60.0,48.0,29.99,East,96,1.0,-999.0,64,-99.99,,,-99.99,,2013-10-27 20:52:00,
2013-10-27 16:11:00,61.0,48.0,29.98,East,90,1.0,-999.0,62,-99.99,,,-99.99,,2013-10-27 21:11:00,
2013-10-27 16:21:00,61.0,49.0,29.98,ENE,61,1.0,-999.0,64,-99.99,,,-99.99,,2013-10-27 21:21:00,
2013-10-27 16:43:00,61.0,48.0,29.98,ENE,62,1.0,-999.0,63,-99.99,,,-99.99,,2013-10-27 21:43:00,
2013-10-27 16:54:00,61.0,48.0,29.98,East,79,1.0,-999.0,63,-99.99,,,-99.99,,2013-10-27 21:54:00,
2013-10-27 17:13:00,62.0,50.0,29.98,East,83,1.0,-999.0,65,-99.99,,,-99.99,,2013-10-27 22:13:00,
2013-10-27 17:24:00,62.0,50.0,29.98,East,96,0.0,-999.0,65,-99.99,,,-99.99,,2013-10-27 22:24:00,
2013-10-27 17:43:00,62.0,50.0,29.97,East,79,0.0,-999.0,65,-99.99,,,-99.99,,2013-10-27 22:43:00,
2013-10-27 17:54:00,61.0,50.0,29.97,ESE,121,0.0,-999.0,68,-99.99,,,-99.99,,2013-10-27 22:54:00,
2013-10-27 18:12:00,60.0,50.0,29.97,ESE,121,0.0,-999.0,70,-99.99,,,-99.99,,2013-10-27 23:12:00,
2013-10-27 18:22:00,59.0,50.0,29.97,ESE,121,0.0,-999.0,73,-99.99,,,-99.99,,2013-10-27 23:22:00,
2013-10-27 18:42:00,58.0,50.0,29.97,ESE,120,0.0,-999.0,75,-99.99,,,-99.99,,2013-10-27 23:42:00,
2013-10-27 18:52:00,56.0,49.0,29.97,ESE,121,0.0,-999.0,78,-99.99,,,-99.99,,2013-10-27 23:52:00,
2013-10-27 19:11:00,55.0,49.0,29.98,ESE,121,0.0,-999.0,79,-99.99,,,-99.99,,2013-10-28 00:11:00,
2013-10-27 19:22:00,54.0,48.0,29.98,ESE,120,0.0,-999.0,80,-99.99,,,-99.99,,2013-10-28 00:22:00,
2013-10-27 19:43:00,53.0,48.0,29.99,ESE,121,0.0,-999.0,82,-99.99,,,-99.99,,2013-10-28 00:43:00,
2013-10-27 20:12:00,50.0,46.0,29.99,ESE,120,0.0,-999.0,85,-99.99,,,-99.99,,2013-10-28 01:12:00,
2013-10-27 20:21:00,49.0,45.0,29.99,ESE,120,0.0,-999.0,86,-99.99,,,-99.99,,2013-10-28 01:21:00,
2013-10-27 20:52:00,48.0,45.0,29.99,ESE,120,0.0,-999.0,88,-99.99,,,-99.99,,2013-10-28 01:52:00,
2013-10-27 21:12:00,47.0,44.0,30.00,ESE,121,0.0,-999.0,89,-99.99,,,-99.99,,2013-10-28 02:12:00,
2013-10-27 21:22:00,46.0,43.0,30.00,ESE,121,0.0,-999.0,89,-99.99,,,-99.99,,2013-10-28 02:22:00,
2013-10-27 21:42:00,46.0,43.0,30.01,ESE,120,0.0,-999.0,90,-99.99,,,-99.99,,2013-10-28 02:42:00,
2013-10-27 21:53:00,45.0,43.0,30.01,ESE,121,0.0,-999.0,91,-99.99,,,-99.99,,2013-10-28 02:53:00,
2013-10-27 22:11:00,45.0,42.0,30.01,ESE,120,0.0,-999.0,90,-99.99,,,-99.99,,2013-10-28 03:11:00,
2013-10-27 22:22:00,45.0,43.0,30.01,ESE,120,0.0,-999.0,92,-99.99,,,-99.99,,2013-10-28 03:22:00,
2013-10-27 22:44:00,44.0,42.0,30.02,ESE,120,0.0,-999.0,91,-99.99,,,-99.99,,2013-10-28 03:44:00,
2013-10-27 22:54:00,44.0,42.0,30.02,ESE,120,0.0,-999.0,91,-99.99,,,-99.99,,2013-10-28 03:54:00,
2013-10-27 23:13:00,44.0,42.0,30.03,ESE,120,0.0,-999.0,92,-99.99,,,-99.99,,2013-10-28 04:13:00,
2013-10-27 23:23:00,43.0,41.0,30.03,ESE,120,0.0,-999.0,92,-99.99,,,-99.99,,2013-10-28 04:23:00,
2013-10-27 23:43:00,43.0,41.0,30.03,ESE,120,0.0,-999.0,93,-99.99,,,-99.99,,2013-10-28 04:43:00,
2013-10-27 23:53:00,43.0,41.0,30.02,ESE,120,0.0,-999.0,93,-99.99,,,-99.99,,2013-10-28 04:53:00,